• In Österreich
  • Länderverzeichnis
  • Für 7 Tage
  • Wassertemperatur
  • Satellitenkarten
  • Wetterkarte
  • News
  • Widgets
  • user-avatar
    Anmelden

    Stündliche Wetter Luksor

    Heute, 20 Oktober, Freitag

    Zeit Temperatur Niederschläge Wind Luftdruck Luftfeuchtigkeit
    00:00 +27°C° 0 mm 2 m/S 752 mmHg 31%
    01:00 +26°C° 0 mm 2 m/S 752 mmHg 33%
    02:00 +25°C° 0 mm 2 m/S 752 mmHg 37%
    03:00 +25°C° 0 mm 2 m/S 752 mmHg 39%
    04:00 +24°C° 0 mm 2 m/S 752 mmHg 41%
    05:00 +24°C° 0 mm 1 m/S 752 mmHg 43%
    06:00 +25°C° 0 mm 2 m/S 752 mmHg 40%
    07:00 +27°C° 0 mm 2 m/S 753 mmHg 37%
    08:00 +28°C° 0 mm 2 m/S 753 mmHg 34%
    09:00 +30°C° 0 mm 2 m/S 753 mmHg 30%
    10:00 +32°C° 0 mm 2 m/S 753 mmHg 26%
    11:00 +34°C° 0 mm 2 m/S 753 mmHg 21%
    12:00 +35°C° 0 mm 2 m/S 752 mmHg 19%
    13:00 +36°C° 0 mm 2 m/S 752 mmHg 17%
    14:00 +37°C° 0 mm 2 m/S 752 mmHg 15%
    15:00 +36°C° 0 mm 2 m/S 751 mmHg 16%
    16:00 +35°C° 0 mm 2 m/S 751 mmHg 16%
    17:00 +35°C° 0 mm 3 m/S 751 mmHg 17%
    18:00 +33°C° 0 mm 3 m/S 751 mmHg 20%
    19:00 +31°C° 0 mm 3 m/S 752 mmHg 22%
    20:00 +30°C° 0 mm 4 m/S 752 mmHg 25%
    21:00 +29°C° 0 mm 3 m/S 752 mmHg 27%
    22:00 +28°C° 0 mm 3 m/S 753 mmHg 28%
    23:00 +27°C° 0 mm 2 m/S 753 mmHg 30%

    Morgen, 21 Oktober, Samstag

    Zeit Temperatur Niederschläge Wind Luftdruck Luftfeuchtigkeit
    00:00 +26°C° 0 mm 2 m/S 753 mmHg 32%
    01:00 +26°C° 0 mm 2 m/S 752 mmHg 34%
    02:00 +25°C° 0 mm 2 m/S 752 mmHg 35%
    03:00 +24°C° 0 mm 2 m/S 752 mmHg 37%
    04:00 +24°C° 0 mm 2 m/S 752 mmHg 38%
    05:00 +24°C° 0 mm 2 m/S 752 mmHg 39%
    06:00 +25°C° 0 mm 2 m/S 752 mmHg 37%
    07:00 +26°C° 0 mm 2 m/S 753 mmHg 34%
    08:00 +28°C° 0 mm 2 m/S 753 mmHg 31%
    09:00 +29°C° 0 mm 2 m/S 753 mmHg 28%
    10:00 +31°C° 0 mm 2 m/S 753 mmHg 25%
    11:00 +34°C° 0 mm 2 m/S 753 mmHg 22%
    12:00 +35°C° 0 mm 2 m/S 752 mmHg 20%
    13:00 +36°C° 0 mm 2 m/S 751 mmHg 17%
    14:00 +36°C° 0 mm 2 m/S 751 mmHg 15%
    15:00 +36°C° 0 mm 2 m/S 750 mmHg 16%
    16:00 +35°C° 0 mm 3 m/S 750 mmHg 16%
    17:00 +34°C° 0 mm 3 m/S 750 mmHg 17%
    18:00 +33°C° 0 mm 3 m/S 750 mmHg 19%
    19:00 +31°C° 0 mm 3 m/S 751 mmHg 22%
    20:00 +29°C° 0 mm 3 m/S 751 mmHg 24%
    21:00 +28°C° 0 mm 3 m/S 751 mmHg 26%
    22:00 +28°C° 0 mm 3 m/S 751 mmHg 28%
    23:00 +27°C° 0 mm 3 m/S 751 mmHg 30%

    übermorgen, 22 Oktober, Sonntag

    Zeit Temperatur Niederschläge Wind Luftdruck Luftfeuchtigkeit
    00:00 +26°C° 0 mm 2 m/S 751 mmHg 32%
    01:00 +25°C° 0 mm 2 m/S 751 mmHg 35%
    02:00 +25°C° 0 mm 2 m/S 751 mmHg 37%
    03:00 +24°C° 0 mm 2 m/S 751 mmHg 39%
    04:00 +23°C° 0 mm 2 m/S 751 mmHg 40%
    05:00 +23°C° 0 mm 1 m/S 751 mmHg 42%
    06:00 +24°C° 0 mm 1 m/S 751 mmHg 39%
    07:00 +26°C° 0 mm 2 m/S 751 mmHg 36%
    08:00 +27°C° 0 mm 2 m/S 752 mmHg 33%
    09:00 +29°C° 0 mm 2 m/S 752 mmHg 29%
    10:00 +30°C° 0 mm 2 m/S 751 mmHg 25%
    11:00 +32°C° 0 mm 2 m/S 751 mmHg 22%
    12:00 +34°C° 0 mm 2 m/S 751 mmHg 19%
    13:00 +35°C° 0 mm 3 m/S 750 mmHg 17%
    14:00 +36°C° 0 mm 3 m/S 749 mmHg 15%
    15:00 +35°C° 0 mm 3 m/S 749 mmHg 16%
    16:00 +34°C° 0 mm 3 m/S 749 mmHg 17%
    17:00 +33°C° 0 mm 3 m/S 749 mmHg 18%
    18:00 +31°C° 0 mm 3 m/S 749 mmHg 20%
    19:00 +30°C° 0 mm 3 m/S 750 mmHg 23%
    20:00 +28°C° 0 mm 3 m/S 750 mmHg 26%
    21:00 +28°C° 0 mm 3 m/S 750 mmHg 28%
    22:00 +27°C° 0 mm 3 m/S 750 mmHg 31%
    23:00 +26°C° 0 mm 3 m/S 750 mmHg 34%

    23 Oktober, Montag

    Zeit Temperatur Niederschläge Wind Luftdruck Luftfeuchtigkeit
    00:00 +25°C° 0 mm 3 m/S 750 mmHg 36%
    01:00 +25°C° 0 mm 3 m/S 750 mmHg 38%
    02:00 +24°C° 0 mm 2 m/S 750 mmHg 40%
    03:00 +24°C° 0 mm 2 m/S 750 mmHg 41%
    04:00 +23°C° 0 mm 2 m/S 750 mmHg 41%
    05:00 +23°C° 0 mm 2 m/S 750 mmHg 42%
    06:00 +24°C° 0 mm 3 m/S 750 mmHg 39%
    07:00 +25°C° 0 mm 3 m/S 751 mmHg 37%
    08:00 +26°C° 0 mm 3 m/S 751 mmHg 34%
    09:00 +28°C° 0 mm 4 m/S 751 mmHg 31%
    10:00 +29°C° 0 mm 4 m/S 751 mmHg 28%
    11:00 +32°C° 0 mm 5 m/S 751 mmHg 24%
    12:00 +33°C° 0 mm 5 m/S 750 mmHg 22%
    13:00 +33°C° 0 mm 5 m/S 749 mmHg 20%
    14:00 +34°C° 0 mm 5 m/S 749 mmHg 17%
    15:00 +33°C° 0 mm 5 m/S 749 mmHg 19%
    16:00 +33°C° 0 mm 5 m/S 749 mmHg 20%
    17:00 +32°C° 0 mm 5 m/S 749 mmHg 21%
    18:00 +30°C° 0 mm 5 m/S 750 mmHg 24%
    19:00 +28°C° 0 mm 4 m/S 750 mmHg 26%
    20:00 +27°C° 0 mm 4 m/S 751 mmHg 29%
    21:00 +26°C° 0 mm 4 m/S 751 mmHg 30%
    22:00 +26°C° 0 mm 4 m/S 751 mmHg 32%
    23:00 +25°C° 0 mm 3 m/S 751 mmHg 33%

    24 Oktober, Dienstag

    Zeit Temperatur Niederschläge Wind Luftdruck Luftfeuchtigkeit
    00:00 +24°C° 0 mm 3 m/S 750 mmHg 34%
    01:00 +24°C° 0 mm 3 m/S 750 mmHg 36%
    02:00 +23°C° 0 mm 2 m/S 750 mmHg 37%
    03:00 +23°C° 0 mm 2 m/S 750 mmHg 38%
    04:00 +21°C° 0 mm 2 m/S 750 mmHg 39%
    05:00 +21°C° 0 mm 2 m/S 751 mmHg 40%
    06:00 +23°C° 0 mm 2 m/S 751 mmHg 37%
    07:00 +24°C° 0 mm 2 m/S 751 mmHg 35%
    08:00 +26°C° 0 mm 3 m/S 752 mmHg 32%
    09:00 +27°C° 0 mm 3 m/S 751 mmHg 29%
    10:00 +29°C° 0 mm 3 m/S 751 mmHg 25%
    11:00 +30°C° 0 mm 3 m/S 751 mmHg 22%
    12:00 +31°C° 0 mm 3 m/S 750 mmHg 20%
    13:00 +33°C° 0 mm 3 m/S 750 mmHg 18%
    14:00 +34°C° 0 mm 3 m/S 749 mmHg 17%
    15:00 +33°C° 0 mm 3 m/S 749 mmHg 18%
    16:00 +31°C° 0 mm 3 m/S 749 mmHg 19%
    17:00 +31°C° 0 mm 3 m/S 749 mmHg 20%
    18:00 +30°C° 0 mm 3 m/S 750 mmHg 23%
    19:00 +28°C° 0 mm 3 m/S 750 mmHg 25%
    20:00 +27°C° 0 mm 3 m/S 751 mmHg 27%
    21:00 +26°C° 0 mm 3 m/S 751 mmHg 29%
    22:00 +26°C° 0 mm 2 m/S 751 mmHg 30%
    23:00 +25°C° 0 mm 2 m/S 751 mmHg 32%

    25 Oktober, Mittwoch

    Zeit Temperatur Niederschläge Wind Luftdruck Luftfeuchtigkeit
    00:00 +24°C° 0 mm 1 m/S 751 mmHg 33%
    01:00 +24°C° 0 mm 1 m/S 751 mmHg 34%
    02:00 +23°C° 0 mm 1 m/S 751 mmHg 35%
    03:00 +23°C° 0 mm 1 m/S 752 mmHg 37%
    04:00 +22°C° 0 mm 1 m/S 752 mmHg 38%
    05:00 +22°C° 0 mm 1 m/S 752 mmHg 39%
    06:00 +24°C° 0 mm 1 m/S 753 mmHg 35%
    07:00 +26°C° 0 mm 1 m/S 753 mmHg 32%
    08:00 +28°C° 0 mm 1 m/S 754 mmHg 28%
    09:00 +29°C° 0 mm 2 m/S 753 mmHg 26%
    10:00 +30°C° 0 mm 2 m/S 753 mmHg 24%
    11:00 +31°C° 0 mm 3 m/S 753 mmHg 22%
    12:00 +33°C° 0 mm 3 m/S 753 mmHg 20%
    13:00 +34°C° 0 mm 3 m/S 752 mmHg 19%
    14:00 +34°C° 0 mm 3 m/S 752 mmHg 17%
    15:00 +34°C° 0 mm 3 m/S 752 mmHg 18%
    16:00 +33°C° 0 mm 3 m/S 752 mmHg 19%
    17:00 +31°C° 0 mm 3 m/S 752 mmHg 19%
    18:00 +30°C° 0 mm 3 m/S 752 mmHg 21%
    19:00 +29°C° 0 mm 3 m/S 753 mmHg 24%
    20:00 +28°C° 0 mm 3 m/S 753 mmHg 26%
    21:00 +27°C° 0 mm 3 m/S 753 mmHg 28%
    22:00 +27°C° 0 mm 2 m/S 753 mmHg 31%
    23:00 +26°C° 0 mm 2 m/S 754 mmHg 33%
    Mehr zeigen